When you browse on this site, cookies collect data to enhance your experience and personalize the content and advertising you see.
Visit our Privacy Policy to learn more. By continuing to use the site, you agree to this use of cookies and data.

Hourly Weather Kozani

Today, 7 July, Tuesday

Time Temperature Precipitation Wind Pressure Humidity
00:00 +21°C° 0.6 mm 1 mps 698 mmHg 83%
01:00 +20°C° 0.6 mm 2 mps 698 mmHg 83%
02:00 +20°C° 0.2 mm 1 mps 697 mmHg 83%
03:00 +20°C° 0.2 mm 1 mps 697 mmHg 83%
04:00 +20°C° 0.2 mm 1 mps 697 mmHg 83%
05:00 +21°C° 0 mm 1 mps 697 mmHg 79%
06:00 +23°C° 0 mm 1 mps 698 mmHg 75%
07:00 +24°C° 0 mm 1 mps 699 mmHg 71%
08:00 +25°C° 0.3 mm 2 mps 699 mmHg 66%
09:00 +27°C° 0.3 mm 2 mps 699 mmHg 60%
10:00 +28°C° 0.3 mm 3 mps 700 mmHg 55%
11:00 +28°C° 0.2 mm 3 mps 700 mmHg 53%
12:00 +29°C° 0.2 mm 3 mps 700 mmHg 52%
13:00 +29°C° 0.2 mm 3 mps 700 mmHg 50%
14:00 +29°C° 0 mm 3 mps 700 mmHg 50%
15:00 +29°C° 0 mm 3 mps 700 mmHg 51%
16:00 +29°C° 0 mm 3 mps 700 mmHg 51%
17:00 +27°C° 0 mm 3 mps 700 mmHg 58%
18:00 +25°C° 0 mm 2 mps 700 mmHg 64%
19:00 +23°C° 0 mm 2 mps 700 mmHg 70%
20:00 +21°C° 0 mm 2 mps 701 mmHg 72%
21:00 +20°C° 0 mm 2 mps 701 mmHg 74%
22:00 +19°C° 0 mm 2 mps 701 mmHg 76%
23:00 +18°C° 0 mm 2 mps 702 mmHg 77%

Tomorrow, 8 July, Wednesday

Time Temperature Precipitation Wind Pressure Humidity
00:00 +17°C° 0 mm 2 mps 702 mmHg 77%
01:00 +17°C° 0 mm 2 mps 702 mmHg 77%
02:00 +16°C° 0 mm 2 mps 702 mmHg 77%
03:00 +16°C° 0 mm 2 mps 702 mmHg 77%
04:00 +15°C° 0 mm 1 mps 702 mmHg 77%
05:00 +16°C° 0 mm 2 mps 703 mmHg 73%
06:00 +17°C° 0 mm 2 mps 703 mmHg 69%
07:00 +18°C° 0 mm 2 mps 704 mmHg 65%
08:00 +21°C° 0 mm 1 mps 704 mmHg 61%
09:00 +23°C° 0 mm 1 mps 705 mmHg 57%
10:00 +25°C° 0 mm 1 mps 705 mmHg 53%
11:00 +25°C° 0 mm 1 mps 705 mmHg 53%
12:00 +26°C° 0 mm 2 mps 705 mmHg 53%
13:00 +27°C° 0 mm 2 mps 705 mmHg 53%
14:00 +27°C° 0 mm 2 mps 705 mmHg 54%
15:00 +26°C° 0 mm 2 mps 705 mmHg 55%
16:00 +26°C° 0 mm 2 mps 705 mmHg 56%
17:00 +25°C° 0 mm 2 mps 705 mmHg 62%
18:00 +24°C° 0 mm 1 mps 705 mmHg 67%
19:00 +22°C° 0 mm 1 mps 705 mmHg 73%
20:00 +22°C° 0 mm 1 mps 705 mmHg 75%
21:00 +21°C° 0 mm 1 mps 705 mmHg 78%
22:00 +20°C° 0 mm 1 mps 705 mmHg 81%
23:00 +18°C° 0 mm 0 mps 705 mmHg 82%

Day after tomorrow, 9 July, Thursday

Time Temperature Precipitation Wind Pressure Humidity
00:00 +17°C° 0 mm 0 mps 706 mmHg 83%
01:00 +17°C° 0 mm 0 mps 706 mmHg 84%
02:00 +16°C° 0 mm 0 mps 705 mmHg 84%
03:00 +16°C° 0 mm 0 mps 705 mmHg 85%
04:00 +16°C° 0 mm 0 mps 705 mmHg 85%
05:00 +17°C° 0 mm 0 mps 706 mmHg 81%
06:00 +18°C° 0 mm 0 mps 706 mmHg 76%
07:00 +20°C° 0 mm 0 mps 706 mmHg 72%
08:00 +23°C° 0 mm 1 mps 707 mmHg 67%
09:00 +24°C° 0 mm 1 mps 707 mmHg 63%
10:00 +26°C° 0 mm 1 mps 707 mmHg 58%
11:00 +26°C° 0 mm 1 mps 707 mmHg 55%
12:00 +27°C° 0 mm 1 mps 707 mmHg 52%
13:00 +28°C° 0 mm 2 mps 706 mmHg 48%
14:00 +28°C° 0 mm 2 mps 706 mmHg 49%
15:00 +28°C° 0 mm 2 mps 706 mmHg 50%
16:00 +28°C° 0 mm 2 mps 706 mmHg 50%
17:00 +26°C° 0 mm 2 mps 706 mmHg 58%
18:00 +25°C° 0 mm 1 mps 706 mmHg 65%
19:00 +23°C° 0 mm 1 mps 706 mmHg 73%
20:00 +22°C° 0 mm 1 mps 706 mmHg 74%
21:00 +21°C° 0 mm 1 mps 706 mmHg 76%
22:00 +21°C° 0 mm 1 mps 706 mmHg 77%
23:00 +18°C° 0 mm 0 mps 706 mmHg 78%

10 July, Friday

Time Temperature Precipitation Wind Pressure Humidity
00:00 +18°C° 0 mm 0 mps 706 mmHg 78%
01:00 +17°C° 0 mm 0 mps 706 mmHg 79%
02:00 +17°C° 0 mm 0 mps 705 mmHg 79%
03:00 +17°C° 0 mm 0 mps 705 mmHg 79%
04:00 +16°C° 0 mm 0 mps 705 mmHg 79%
05:00 +18°C° 0 mm 0 mps 705 mmHg 74%
06:00 +19°C° 0 mm 0 mps 706 mmHg 69%
07:00 +21°C° 0 mm 0 mps 706 mmHg 65%
08:00 +24°C° 0 mm 1 mps 706 mmHg 61%
09:00 +25°C° 0 mm 1 mps 706 mmHg 57%
10:00 +26°C° 0 mm 2 mps 706 mmHg 53%
11:00 +27°C° 0 mm 2 mps 706 mmHg 50%
12:00 +28°C° 0 mm 2 mps 706 mmHg 48%
13:00 +28°C° 0 mm 2 mps 705 mmHg 46%
14:00 +28°C° 0 mm 2 mps 705 mmHg 45%
15:00 +28°C° 0 mm 2 mps 705 mmHg 45%
16:00 +28°C° 0 mm 1 mps 705 mmHg 45%
17:00 +27°C° 0 mm 1 mps 705 mmHg 50%
18:00 +25°C° 0 mm 1 mps 704 mmHg 55%
19:00 +23°C° 0 mm 1 mps 704 mmHg 60%
20:00 +22°C° 0 mm 1 mps 704 mmHg 61%
21:00 +21°C° 0 mm 1 mps 705 mmHg 62%
22:00 +20°C° 0 mm 1 mps 705 mmHg 63%
23:00 +20°C° 0 mm 1 mps 705 mmHg 64%

11 July, Saturday

Time Temperature Precipitation Wind Pressure Humidity
00:00 +17°C° 0 mm 0 mps 704 mmHg 64%
01:00 +17°C° 0 mm 0 mps 704 mmHg 65%
02:00 +17°C° 0 mm 0 mps 704 mmHg 66%
03:00 +16°C° 0 mm 0 mps 704 mmHg 67%
04:00 +16°C° 0 mm 0 mps 704 mmHg 68%
05:00 +18°C° 0 mm 0 mps 704 mmHg 64%
06:00 +19°C° 0 mm 0 mps 704 mmHg 60%
07:00 +21°C° 0 mm 0 mps 705 mmHg 56%
08:00 +23°C° 0 mm 0 mps 705 mmHg 52%
09:00 +24°C° 0 mm 0 mps 705 mmHg 48%
10:00 +28°C° 0 mm 1 mps 705 mmHg 44%
11:00 +29°C° 0 mm 1 mps 705 mmHg 42%
12:00 +30°C° 0 mm 1 mps 705 mmHg 40%
13:00 +30°C° 0 mm 1 mps 705 mmHg 37%
14:00 +30°C° 0 mm 1 mps 705 mmHg 37%
15:00 +30°C° 0 mm 1 mps 705 mmHg 37%
16:00 +30°C° 0 mm 1 mps 704 mmHg 37%
17:00 +28°C° 0 mm 1 mps 704 mmHg 45%
18:00 +26°C° 0 mm 1 mps 704 mmHg 53%
19:00 +24°C° 0 mm 1 mps 704 mmHg 61%
20:00 +24°C° 0 mm 1 mps 704 mmHg 64%
21:00 +21°C° 0 mm 0 mps 704 mmHg 67%
22:00 +20°C° 0 mm 0 mps 704 mmHg 69%
23:00 +20°C° 0 mm 0 mps 704 mmHg 70%

12 July, Sunday

Time Temperature Precipitation Wind Pressure Humidity
00:00 +19°C° 0 mm 0 mps 704 mmHg 71%
01:00 +19°C° 0 mm 0 mps 704 mmHg 72%
02:00 +19°C° 0 mm 0 mps 704 mmHg 73%
03:00 +18°C° 0 mm 0 mps 704 mmHg 73%
04:00 +18°C° 0 mm 0 mps 704 mmHg 74%
05:00 +22°C° 0 mm 1 mps 704 mmHg 70%
06:00 +23°C° 0 mm 1 mps 705 mmHg 66%
07:00 +25°C° 0 mm 1 mps 705 mmHg 62%
08:00 +26°C° 0 mm 1 mps 705 mmHg 59%
09:00 +27°C° 0 mm 2 mps 706 mmHg 55%
10:00 +29°C° 0 mm 2 mps 706 mmHg 52%
11:00 +29°C° 0.1 mm 2 mps 706 mmHg 50%
12:00 +30°C° 0.1 mm 2 mps 706 mmHg 48%
13:00 +30°C° 0.1 mm 2 mps 705 mmHg 47%
14:00 +30°C° 0.1 mm 2 mps 705 mmHg 48%
15:00 +30°C° 0.1 mm 2 mps 705 mmHg 49%
16:00 +30°C° 0.1 mm 2 mps 705 mmHg 50%
17:00 +28°C° 0 mm 1 mps 705 mmHg 54%
18:00 +27°C° 0 mm 1 mps 705 mmHg 59%
19:00 +25°C° 0 mm 1 mps 705 mmHg 64%
20:00 +25°C° 0 mm 1 mps 705 mmHg 66%
21:00 +24°C° 0 mm 1 mps 705 mmHg 68%
22:00 +23°C° 0 mm 1 mps 705 mmHg 70%
23:00 +23°C° 0 mm 1 mps 705 mmHg 70%
Show more